Vorticity
6 6 6 7 7 6 6 5 5 4 5 6 5 5 6 7 6 5 3 1 -0 0 3 4 4 3 4 5 4 4 4 4 5 4 2 2 3 2 1 1 4 8 10 11 9 7 5 3 1 2 5 5 5 4 3 3 3 3 4 5 5 6 7 10 14 13 5 3 4 5 7 9 8 7 7 7 7 8 7 6 6 7 8 8 7
5 5 5 5 5 3 -0 -4 -4 -1 1 1 -0 -1 1 4 8 10 10 9 9 11 12 12 10 9 8 9 9 8 7 7 7 6 4 3 3 3 2 2 2 4 8 11 11 10 9 5 2 2 3 4 2 2 3 4 5 4 3 3 3 3 4 5 9 11 8 6 6 4 2 5 9 9 9 8 8 9 8 7 6 6 7 7 7
4 5 6 5 3 -1 -4 -4 -0 5 8 8 8 7 7 9 10 10 11 12 12 14 15 14 14 14 13 12 12 11 11 11 10 8 8 7 7 8 8 8 6 4 4 7 9 11 12 9 5 3 5 6 5 2 2 2 4 5 5 4 3 1 2 5 8 8 5 1 2 5 3 3 5 7 9 8 6 8 9 10 9 7 7 7 7
1 1 -1 -3 -5 -5 -3 3 8 10 10 9 9 9 9 9 8 7 7 6 6 6 6 7 7 8 8 8 8 8 9 10 9 8 8 8 7 7 8 9 9 7 5 4 5 7 10 11 9 8 8 8 7 7 7 6 4 3 3 4 6 5 2 4 8 11 10 4 -1 0 2 2 2 3 6 7 7 7 8 10 11 11 10 9 8
-0 0 1 2 4 6 8 9 9 8 7 7 7 7 7 7 6 7 6 5 5 4 3 3 3 3 3 3 3 4 5 6 6 6 6 6 6 6 5 4 5 6 5 4 4 3 5 5 5 7 10 9 6 5 8 11 12 9 5 2 3 5 5 5 5 8 12 11 6 2 1 1 -0 0 2 6 8 7 5 6 9 11 12 11 11
8 9 9 10 10 10 10 9 8 8 8 7 7 6 7 6 6 6 5 5 4 4 4 4 5 5 5 5 5 5 5 5 5 5 5 5 6 6 6 5 4 3 3 3 2 3 4 3 1 1 5 9 9 7 7 9 12 14 13 10 7 6 5 4 2 3 5 8 8 7 6 4 2 1 0 3 6 7 6 5 5 6 9 11 13
10 10 9 9 9 9 9 9 8 8 8 8 8 7 7 7 7 7 8 8 9 10 11 11 13 14 14 15 14 13 12 11 9 9 8 7 7 7 7 7 6 5 4 3 2 2 3 3 2 2 3 5 7 9 9 8 8 10 12 13 13 13 13 11 7 4 3 3 4 5 6 6 4 1 -0 0 3 5 6 7 8 8 8 10 12
9 9 9 9 8 8 8 8 8 9 10 11 12 14 15 16 18 18 19 19 19 19 19 19 20 21 21 23 24 24 24 23 22 20 18 16 14 12 10 9 8 8 6 5 4 3 4 5 5 6 8 9 9 9 9 7 5 5 6 8 10 11 13 15 15 13 10 6 3 3 5 6 5 3 1 1 3 7 10 12 13 11 8 8 9
8 9 9 10 10 11 12 14 16 18 19 21 23 25 27 28 29 30 30 31 30 29 29 28 27 25 24 25 26 27 27 27 28 28 27 26 24 23 22 19 16 14 12 10 7 5 4 5 5 6 7 8 9 8 7 7 5 4 4 3 5 8 9 10 13 16 16 14 9 5 4 5 5 6 6 5 5 7 8 8 10 10 8 7 8
11 12 14 16 17 20 23 25 27 29 31 32 32 31 31 30 30 30 30 31 32 32 31 30 30 29 27 25 24 24 24 25 25 26 27 28 28 28 28 27 26 25 22 20 17 12 10 8 7 7 7 8 9 8 7 6 4 4 4 1 1 3 6 7 8 11 14 17 17 13 10 9 5 5 8 8 6 5 4 4 7 10 10 8 7
18 18 19 21 24 27 29 30 31 30 29 28 26 26 26 25 25 24 24 24 24 25 25 25 25 25 25 25 24 23 23 23 24 24 24 25 25 26 26 25 26 27 27 28 27 24 21 17 14 12 10 10 10 9 10 9 6 5 4 3 2 2 2 3 4 6 8 13 16 17 17 16 12 7 6 5 3 3 6 7 6 5 8 10 10
24 25 27 28 28 28 26 23 22 20 19 18 18 18 18 18 19 18 18 18 17 17 18 18 18 18 19 20 20 20 21 20 20 21 21 22 23 24 26 25 24 24 24 25 27 27 27 26 24 21 18 15 13 11 10 10 10 9 7 5 4 3 3 2 0 1 2 5 9 12 14 18 18 15 11 7 2 1 3 4 3 4 6 9 11
25 25 24 23 21 19 17 16 15 14 15 15 15 16 16 16 15 14 13 12 12 11 11 10 11 11 11 12 13 13 14 13 13 14 15 16 17 19 22 24 25 25 25 24 25 25 25 25 26 25 24 22 20 18 15 12 9 9 9 9 7 4 4 4 4 3 0 -0 1 2 4 10 15 17 17 15 9 5 2 2 4 6 5 6 10
19 18 17 16 16 16 16 16 15 15 14 14 13 12 11 9 8 7 7 7 7 8 8 9 9 10 11 12 13 14 14 14 15 16 16 16 16 16 17 19 20 20 21 22 23 24 25 25 26 26 26 26 25 25 23 21 17 13 10 10 9 7 5 5 7 8 6 5 3 1 1 2 6 12 15 15 12 10 7 5 6 7 6 7 8
17 16 15 15 15 14 14 13 12 10 9 8 7 6 6 6 6 7 9 10 12 13 14 15 16 16 17 17 17 18 18 18 18 18 18 18 18 19 19 19 20 20 21 22 23 24 26 27 28 29 28 27 27 27 27 27 25 22 18 14 12 11 9 7 6 7 8 9 8 6 3 0 2 6 9 11 12 12 10 9 8 7 7 7 5
15 14 13 12 11 10 8 7 6 6 6 6 7 8 9 10 12 13 15 15 16 16 16 16 15 15 14 14 16 16 15 16 18 18 18 19 18 19 19 20 21 22 22 22 22 23 23 24 26 28 29 29 28 28 29 30 30 29 27 24 21 17 15 12 9 8 8 9 10 10 8 5 4 5 6 7 9 11 13 12 9 8 7 8 10
12 11 10 8 7 6 6 6 7 8 9 10 12 13 14 15 16 16 16 15 14 13 12 11 12 14 15 16 17 18 18 19 21 21 21 22 22 23 24 25 25 25 24 24 23 22 21 20 19 19 21 22 23 24 25 27 29 30 30 30 29 26 23 20 17 14 12 11 11 12 11 9 8 7 7 7 7 7 9 8 7 10 11 9 11
9 8 7 6 7 7 8 9 11 12 13 14 14 15 15 14 13 12 11 10 10 10 12 15 17 19 19 19 21 22 23 24 24 25 27 29 31 33 34 34 34 34 34 34 33 33 32 30 29 27 24 21 18 17 17 18 21 25 27 28 29 29 29 28 26 24 22 18 16 14 13 11 10 9 9 9 8 7 6 5 7 11 9 6 9
7 7 8 8 9 9 11 12 13 14 15 14 13 13 12 10 10 10 10 12 13 16 19 20 20 20 21 24 24 25 25 25 25 27 29 29 28 28 29 28 27 26 25 24 23 24 25 26 27 28 30 30 28 25 21 18 17 18 19 21 24 27 28 28 29 30 28 26 23 20 18 16 14 12 9 8 8 7 6 6 7 7 6 7 12
8 8 8 9 10 12 14 16 16 16 15 13 12 11 10 10 11 12 13 16 18 20 21 21 21 23 24 24 22 23 25 26 25 26 26 24 22 19 17 14 12 10 9 10 11 12 13 15 16 16 18 20 23 26 28 27 26 23 19 18 19 22 23 23 24 25 25 26 25 24 23 22 19 16 13 10 7 6 5 5 5 4 6 10 12
7 8 9 11 14 16 17 16 16 14 12 11 10 10 11 13 14 14 17 19 19 21 22 23 24 23 20 19 22 26 27 27 26 24 21 18 14 11 8 5 4 4 4 5 5 6 8 12 15 17 16 14 13 13 16 20 25 27 27 24 22 21 20 19 20 20 20 22 23 23 23 23 21 19 16 14 12 10 8 7 6 5 5 7 9
8 10 13 15 16 16 16 14 12 10 10 10 10 11 13 14 14 16 18 19 20 24 26 24 21 18 16 18 24 27 26 24 20 16 12 10 8 6 5 5 4 5 4 3 4 9 17 21 22 22 21 20 18 14 11 10 12 17 23 27 28 28 25 22 20 19 19 19 19 20 22 22 22 22 20 18 17 15 13 11 9 7 6 5 6
11 13 15 16 15 14 12 10 9 9 10 12 12 14 14 14 15 17 18 21 26 28 24 18 15 14 16 17 20 23 22 19 15 11 8 7 6 5 6 6 5 6 6 5 10 19 28 32 33 32 30 27 24 21 19 15 11 10 11 15 20 25 29 29 27 23 22 20 18 18 19 20 21 22 23 23 21 19 18 16 14 12 9 6 6
13 14 14 13 12 11 10 9 10 12 12 13 14 14 14 15 16 16 19 27 30 24 15 11 11 13 15 15 18 24 24 16 11 9 7 6 6 6 7 8 8 10 9 9 15 24 27 26 28 33 35 36 33 29 26 23 19 15 12 11 11 13 18 25 30 30 29 27 23 20 17 17 19 20 22 25 26 23 21 20 19 17 14 10 8
13 13 12 11 10 10 11 11 13 13 13 14 14 14 14 16 16 18 26 31 24 12 8 10 10 10 11 12 17 26 29 23 17 13 11 11 11 11 11 10 11 11 10 10 18 25 25 22 24 27 30 34 37 36 33 31 27 21 16 14 14 12 10 12 18 24 30 32 31 28 23 18 16 17 18 21 23 24 23 21 20 20 19 16 12
12 11 10 10 10 12 12 13 13 13 13 13 13 14 15 15 17 25 31 25 12 6 9 10 8 6 7 9 13 19 24 26 25 21 19 16 14 12 10 9 9 8 7 11 17 19 17 19 24 29 31 32 32 33 34 34 34 30 22 16 16 17 15 12 9 10 15 22 28 32 32 28 22 18 16 16 17 20 22 22 21 21 21 21 19
11 11 11 12 13 13 13 13 12 11 12 12 14 15 15 17 24 31 27 14 6 9 12 8 4 5 5 8 12 12 12 15 18 18 18 17 16 14 12 10 8 7 7 9 13 13 13 17 25 33 35 33 29 29 30 32 35 36 30 21 17 17 19 20 18 13 8 7 12 20 27 30 29 24 19 16 15 16 19 21 21 21 20 21 21
11 12 13 14 14 14 13 12 11 11 12 13 14 15 15 22 30 27 15 8 9 12 11 5 4 7 9 11 14 14 11 12 13 13 13 13 13 14 13 12 11 8 7 7 8 8 9 15 25 33 35 32 28 26 26 27 31 37 37 28 19 15 16 19 23 24 20 13 8 9 15 20 26 29 27 22 17 15 15 16 18 20 20 19 21
13 15 15 15 14 13 13 13 12 12 13 13 14 15 20 29 30 17 6 9 13 13 9 6 7 10 11 13 14 14 12 12 14 15 14 12 12 12 12 12 12 10 7 6 7 7 8 14 26 34 34 31 30 28 26 24 23 30 37 35 25 17 14 13 16 24 29 27 19 13 12 13 17 24 29 29 25 19 16 15 15 16 17 17 19
16 16 16 15 16 15 14 13 12 12 13 14 14 18 24 28 23 12 8 9 10 9 8 6 6 8 9 10 12 12 11 11 12 12 11 11 12 13 13 13 13 11 8 6 6 6 6 13 27 36 33 27 26 31 32 28 21 22 29 35 32 23 15 11 13 20 28 31 27 21 18 16 15 16 23 29 30 26 20 17 14 13 13 14 16
17 17 16 17 16 15 13 13 11 11 13 14 17 24 28 20 11 11 14 10 4 5 8 8 8 8 9 10 10 10 10 11 12 10 10 10 12 14 15 16 15 11 7 4 5 6 5 9 23 35 33 24 21 29 35 32 26 22 24 30 32 26 17 12 14 20 27 30 28 25 22 20 16 13 15 23 29 30 27 22 19 16 13 12 13
17 17 17 16 14 13 12 12 11 12 15 16 21 31 30 15 4 8 12 9 5 6 9 9 9 8 10 11 11 10 9 10 11 11 11 11 12 14 18 20 18 12 6 3 4 5 4 6 16 30 34 26 21 27 33 32 27 23 24 28 30 26 19 14 15 22 28 27 25 26 26 22 18 14 14 19 25 29 30 28 24 20 17 14 13
17 17 15 13 12 11 11 11 13 15 17 18 25 31 25 13 7 6 2 1 6 12 13 13 12 10 10 11 11 10 10 9 10 12 12 13 13 15 20 23 19 12 7 4 3 5 5 4 11 26 35 31 25 27 32 31 25 22 24 29 30 26 22 17 17 23 27 24 23 26 26 22 17 14 15 20 23 25 28 30 28 25 21 18 15
15 14 13 11 11 11 12 14 16 17 15 19 28 28 17 11 13 10 -0 -3 3 8 10 13 14 13 12 11 10 10 10 10 11 12 13 14 14 16 22 26 22 13 7 4 2 4 6 5 9 22 33 32 28 29 33 31 24 19 20 26 30 30 26 19 19 24 24 21 24 28 25 19 14 11 12 15 17 19 22 26 28 29 26 22 19
14 14 14 14 14 14 14 14 15 14 14 21 28 23 12 9 11 8 3 3 5 6 5 6 8 11 11 9 9 10 10 10 12 13 14 14 15 18 24 27 23 15 8 4 1 3 6 5 8 20 30 31 26 28 33 33 25 19 18 22 28 32 29 23 22 25 24 20 22 24 20 14 13 12 11 11 11 14 18 21 24 28 28 25 24
15 15 15 14 13 12 10 10 12 13 16 24 27 17 10 10 8 4 4 7 10 11 10 6 5 8 9 9 9 10 11 12 13 14 15 15 16 18 24 28 25 16 8 4 2 4 6 5 8 19 31 32 27 27 31 32 27 21 19 20 23 28 30 28 25 25 24 22 22 20 14 11 11 10 9 10 12 14 18 21 24 28 28 26 25
12 12 11 9 8 6 5 8 12 14 18 26 24 13 8 9 6 3 5 9 11 13 12 9 7 6 7 9 10 9 10 12 15 16 18 18 19 21 26 29 26 17 9 4 3 5 7 8 13 23 30 31 28 29 31 30 27 22 19 19 21 22 25 29 30 28 25 25 25 20 12 7 6 5 6 8 10 13 16 20 23 27 28 27 26
7 7 7 6 6 6 4 7 12 16 21 26 21 11 7 7 5 4 7 10 11 12 11 10 9 7 6 8 9 9 9 11 13 16 19 20 22 26 29 29 24 17 10 5 4 8 10 11 17 27 31 28 26 28 31 32 29 23 18 17 21 24 25 26 28 27 25 24 23 19 14 9 7 7 8 9 10 12 17 21 23 25 26 26 25
4 5 5 4 4 6 6 7 14 20 24 24 18 9 5 6 5 5 8 9 11 11 10 9 9 8 8 8 8 9 9 9 9 11 15 18 23 27 29 27 22 17 12 7 6 9 9 8 15 27 32 28 23 23 27 30 31 28 22 15 15 22 26 25 23 21 19 18 17 15 14 13 11 9 9 10 11 13 17 22 26 28 27 26 26
5 6 6 4 4 5 5 9 19 26 27 22 15 7 5 5 5 6 8 9 10 10 9 8 8 7 8 9 9 10 10 9 9 11 13 17 23 27 27 25 21 17 13 11 9 9 7 5 12 24 32 31 24 20 23 27 27 28 28 22 15 15 18 21 21 19 17 16 15 14 13 12 10 10 11 12 14 16 18 23 27 29 28 26 25
7 8 10 6 3 4 9 20 32 35 29 19 10 5 5 6 6 7 8 9 9 8 8 8 8 7 8 9 9 10 11 10 10 12 14 19 25 27 26 24 21 17 14 11 8 7 6 6 10 20 30 32 26 19 20 26 28 26 26 25 22 19 16 16 17 16 15 13 11 10 11 10 10 11 12 13 15 17 18 22 25 26 26 24 23
6 12 11 4 3 11 23 35 44 40 26 14 7 3 4 6 6 8 9 9 8 8 8 8 7 7 8 8 8 9 9 9 10 12 15 20 26 28 26 24 22 18 13 8 6 6 8 9 8 12 22 31 31 22 17 22 29 30 27 24 24 23 21 20 19 18 17 17 15 13 13 12 12 13 15 16 18 19 19 21 24 24 24 23 22
8 12 7 3 11 24 32 40 45 37 21 9 4 3 5 6 7 8 9 8 7 7 8 8 8 8 8 8 8 8 8 8 9 12 14 19 24 26 25 25 24 18 10 5 4 5 8 11 10 7 14 27 34 28 20 19 23 28 29 28 27 26 25 24 22 20 19 19 18 17 17 16 15 15 17 18 19 19 19 21 23 23 23 22 22
11 8 4 9 22 31 36 43 44 31 14 4 2 3 5 6 7 9 9 7 7 8 7 7 8 8 8 8 8 8 8 8 9 11 14 16 21 25 25 25 24 17 9 6 5 2 6 14 13 6 10 27 34 28 23 23 22 21 22 22 21 24 26 26 26 25 24 22 21 21 21 21 21 21 22 22 23 23 23 23 23 23 23 22 22
7 3 9 20 28 34 43 47 38 20 7 3 4 5 6 7 8 9 8 6 7 8 8 8 9 9 8 8 8 7 8 9 10 12 13 14 17 22 25 26 24 17 10 9 8 3 4 14 16 8 10 24 31 26 24 27 27 23 22 19 16 15 18 20 22 24 23 24 25 25 25 26 28 28 29 28 27 26 25 24 23 23 22 23 23
1 8 21 27 31 41 49 43 25 10 3 3 4 5 6 8 9 8 7 7 8 8 8 8 9 9 8 8 8 8 9 11 12 13 14 13 13 18 23 26 26 21 13 11 10 7 5 12 18 14 9 16 26 27 24 24 26 27 27 27 26 25 22 21 22 24 23 22 21 21 23 24 24 25 28 29 29 30 30 27 25 25 24 23 23
9 22 28 29 38 49 45 28 13 5 3 3 5 6 7 9 9 7 6 7 8 8 9 9 9 9 8 8 8 8 10 12 14 14 14 13 11 13 18 23 25 23 18 14 13 11 7 9 16 16 10 11 22 26 17 11 17 24 21 14 16 21 23 22 23 25 29 30 29 26 26 23 19 21 27 27 22 22 25 22 19 22 26 26 25
25 28 27 34 47 47 30 14 6 4 3 4 6 7 8 9 8 7 7 8 8 8 9 9 9 9 8 8 8 9 11 14 15 15 15 15 11 9 14 20 22 21 19 16 15 14 11 10 14 16 12 11 17 23 18 10 9 11 9 6 10 14 15 16 20 23 23 20 13 10 14 15 11 12 19 17 9 10 17 17 14 16 20 23 23
30 25 31 45 47 32 15 6 4 3 3 6 7 7 9 9 7 6 7 8 8 9 9 9 9 9 8 8 9 10 13 16 16 14 16 18 13 7 8 16 20 20 18 17 16 15 13 10 11 14 16 14 13 17 21 19 13 5 0 4 17 24 18 11 12 17 20 17 9 5 12 21 19 13 13 15 14 14 16 14 12 14 16 16 15
23 27 41 47 34 15 6 4 3 3 6 7 7 8 9 8 6 6 7 7 7 8 9 9 9 9 8 9 10 11 15 18 16 13 15 20 17 9 5 9 15 18 18 18 17 15 13 11 9 10 15 17 15 13 12 15 19 18 6 -5 1 19 28 23 15 12 14 22 24 17 12 16 20 19 18 20 20 16 13 12 14 15 16 16 15
24 37 45 34 16 6 4 3 3 6 7 7 7 9 9 6 6 7 7 6 7 8 8 9 10 9 9 10 11 13 16 19 16 12 13 18 20 15 7 4 8 14 17 19 20 19 15 12 9 8 10 14 18 18 14 9 12 22 21 6 -2 4 14 20 23 22 20 23 30 28 17 11 13 18 23 27 25 18 14 15 21 23 20 17 16
Height
5639 5638 5637 5636 5634 5633 5631 5630 5628 5627 5625 5623 5622 5620 5619 5618 5617 5616 5614 5612 5611 5610 5609 5608 5608 5608 5607 5606 5605 5604 5602 5601 5600 5600 5599 5598 5597 5597 5597 5597 5598 5599 5600 5600 5599 5599 5600 5601 5601 5600 5600 5602 5604 5604 5605 5605 5605 5606 5607 5608 5609 5610 5610 5609 5613 5621 5625 5625 5627 5629 5629 5630 5632 5635 5636 5637 5638 5639 5640 5643 5645 5648 5650 5651 5652
5628 5627 5626 5624 5623 5622 5620 5619 5617 5615 5614 5612 5610 5608 5607 5606 5605 5604 5603 5601 5600 5599 5598 5597 5596 5595 5594 5594 5593 5592 5591 5589 5588 5588 5587 5586 5585 5584 5583 5582 5583 5584 5585 5586 5587 5586 5587 5589 5589 5588 5587 5590 5592 5592 5593 5593 5593 5595 5596 5595 5597 5599 5597 5598 5601 5606 5612 5614 5614 5617 5619 5619 5622 5625 5625 5626 5628 5628 5630 5632 5634 5637 5639 5641 5643
5617 5615 5613 5612 5611 5609 5608 5606 5604 5603 5601 5600 5598 5596 5594 5593 5591 5590 5589 5588 5587 5586 5586 5585 5585 5583 5582 5581 5580 5579 5578 5577 5576 5575 5574 5573 5572 5571 5570 5569 5568 5569 5569 5570 5571 5571 5573 5575 5577 5576 5575 5578 5580 5580 5580 5580 5580 5582 5584 5584 5585 5587 5586 5585 5588 5593 5599 5602 5603 5605 5607 5608 5612 5615 5614 5615 5617 5617 5619 5623 5624 5626 5629 5631 5633
5606 5603 5602 5600 5599 5597 5595 5594 5592 5590 5588 5587 5585 5583 5581 5580 5578 5577 5576 5574 5573 5572 5571 5571 5571 5571 5570 5569 5567 5566 5565 5564 5563 5562 5560 5558 5557 5557 5557 5556 5555 5555 5555 5555 5556 5555 5556 5559 5561 5561 5561 5563 5568 5569 5568 5568 5568 5568 5571 5572 5573 5574 5574 5573 5575 5579 5583 5588 5592 5594 5594 5596 5600 5602 5603 5604 5606 5607 5609 5612 5613 5616 5619 5621 5623
5594 5592 5589 5587 5585 5584 5582 5581 5579 5577 5575 5573 5571 5569 5567 5566 5564 5563 5562 5560 5559 5557 5556 5555 5555 5555 5555 5554 5553 5552 5551 5550 5550 5549 5547 5544 5542 5542 5541 5541 5541 5542 5542 5542 5542 5542 5542 5544 5546 5546 5545 5547 5551 5553 5553 5555 5555 5556 5558 5559 5559 5560 5562 5562 5564 5566 5568 5574 5580 5581 5581 5584 5587 5589 5591 5593 5595 5596 5599 5601 5603 5605 5608 5610 5612
5582 5579 5576 5573 5571 5570 5568 5566 5564 5563 5561 5559 5557 5555 5553 5551 5550 5548 5547 5545 5544 5542 5541 5539 5538 5537 5537 5537 5536 5536 5536 5535 5535 5534 5532 5529 5527 5526 5525 5525 5525 5526 5528 5529 5529 5529 5530 5531 5533 5533 5532 5533 5535 5537 5537 5537 5539 5542 5544 5546 5546 5545 5547 5549 5551 5553 5556 5561 5566 5568 5569 5572 5574 5576 5578 5580 5582 5585 5587 5589 5592 5594 5596 5599 5601
5570 5567 5564 5561 5558 5556 5554 5551 5550 5548 5546 5544 5542 5540 5538 5537 5535 5533 5531 5530 5528 5526 5525 5523 5521 5520 5519 5519 5518 5517 5518 5518 5517 5515 5514 5512 5510 5510 5510 5510 5510 5510 5511 5513 5514 5514 5516 5518 5521 5521 5521 5520 5522 5523 5523 5522 5523 5525 5528 5530 5531 5531 5533 5536 5537 5538 5542 5548 5552 5555 5557 5559 5560 5563 5566 5567 5568 5573 5577 5579 5581 5584 5586 5588 5591
5557 5554 5551 5548 5545 5542 5540 5538 5535 5533 5530 5528 5525 5523 5522 5520 5519 5517 5516 5514 5512 5510 5508 5507 5505 5503 5502 5501 5500 5499 5499 5499 5498 5495 5493 5492 5491 5491 5492 5493 5494 5495 5496 5497 5498 5499 5500 5502 5504 5507 5508 5508 5509 5510 5510 5510 5510 5511 5513 5514 5514 5515 5518 5521 5523 5524 5527 5532 5538 5542 5544 5545 5548 5551 5553 5554 5556 5563 5566 5567 5569 5572 5574 5576 5579
5544 5541 5538 5535 5532 5529 5526 5524 5521 5518 5515 5512 5510 5508 5506 5504 5502 5501 5499 5497 5496 5494 5492 5490 5488 5487 5485 5484 5482 5482 5481 5481 5480 5476 5473 5472 5471 5471 5472 5474 5475 5477 5479 5481 5483 5484 5485 5486 5487 5489 5491 5492 5494 5495 5497 5497 5496 5496 5500 5500 5498 5498 5501 5504 5507 5510 5513 5517 5523 5527 5529 5531 5536 5539 5540 5542 5547 5551 5551 5551 5555 5560 5561 5562 5565
5531 5528 5524 5521 5519 5516 5513 5510 5507 5504 5502 5499 5497 5495 5493 5491 5489 5487 5485 5483 5481 5479 5477 5475 5473 5471 5469 5468 5467 5465 5465 5465 5463 5459 5456 5454 5453 5452 5453 5454 5456 5457 5459 5462 5465 5467 5469 5469 5471 5472 5473 5474 5476 5478 5481 5482 5481 5482 5484 5486 5484 5484 5486 5488 5491 5495 5498 5501 5507 5513 5513 5517 5525 5527 5528 5532 5534 5534 5535 5538 5543 5546 5546 5548 5553
5519 5516 5513 5510 5507 5505 5502 5499 5496 5494 5491 5489 5487 5485 5483 5481 5478 5476 5474 5472 5469 5467 5465 5463 5460 5458 5455 5453 5453 5451 5451 5450 5446 5442 5440 5437 5435 5434 5435 5437 5439 5440 5441 5443 5445 5449 5451 5451 5453 5455 5457 5458 5459 5460 5461 5463 5465 5466 5468 5470 5470 5469 5471 5473 5476 5479 5481 5483 5490 5496 5498 5504 5513 5515 5514 5519 5520 5519 5523 5526 5528 5531 5533 5538 5543
5507 5504 5502 5500 5497 5495 5492 5490 5487 5484 5482 5480 5478 5476 5474 5471 5469 5467 5465 5462 5460 5458 5455 5452 5450 5447 5443 5441 5440 5439 5438 5436 5431 5427 5425 5423 5420 5417 5417 5420 5422 5424 5425 5426 5427 5430 5431 5432 5434 5435 5438 5441 5443 5444 5444 5445 5447 5448 5450 5452 5453 5454 5455 5458 5462 5465 5466 5467 5472 5478 5482 5490 5499 5501 5501 5504 5506 5506 5509 5511 5513 5518 5521 5525 5532
5496 5494 5492 5489 5487 5485 5482 5480 5477 5475 5472 5470 5468 5466 5463 5461 5459 5456 5454 5452 5449 5448 5445 5442 5439 5436 5432 5430 5429 5428 5426 5423 5417 5414 5412 5410 5407 5403 5401 5403 5405 5406 5408 5409 5410 5412 5413 5413 5414 5416 5420 5422 5424 5425 5426 5428 5429 5429 5429 5431 5434 5437 5440 5442 5445 5449 5452 5452 5455 5461 5469 5474 5480 5485 5487 5488 5489 5491 5494 5497 5501 5505 5507 5513 5521
5486 5484 5482 5479 5477 5475 5472 5470 5467 5465 5462 5460 5458 5455 5453 5450 5448 5445 5443 5441 5438 5436 5434 5431 5428 5424 5420 5417 5416 5416 5414 5409 5404 5402 5399 5396 5393 5389 5388 5389 5390 5391 5392 5393 5393 5393 5395 5395 5396 5399 5402 5403 5404 5405 5406 5407 5408 5409 5410 5411 5414 5419 5422 5425 5428 5432 5435 5437 5439 5447 5456 5459 5461 5468 5470 5468 5470 5476 5481 5484 5488 5490 5492 5499 5505
5476 5474 5472 5469 5467 5464 5461 5459 5457 5455 5453 5450 5448 5445 5442 5439 5437 5434 5431 5429 5427 5424 5421 5419 5416 5412 5409 5405 5402 5403 5401 5394 5390 5388 5386 5382 5379 5376 5375 5375 5376 5377 5379 5379 5378 5377 5378 5378 5378 5381 5383 5385 5386 5386 5385 5384 5385 5388 5390 5393 5396 5400 5403 5407 5412 5416 5418 5420 5422 5430 5441 5445 5445 5450 5452 5450 5453 5461 5465 5468 5472 5474 5476 5482 5486
5468 5465 5463 5460 5457 5454 5452 5450 5447 5445 5443 5440 5437 5434 5431 5428 5425 5422 5420 5418 5415 5412 5409 5406 5403 5400 5397 5393 5389 5390 5388 5382 5376 5374 5371 5368 5365 5364 5363 5363 5364 5364 5366 5366 5364 5363 5363 5362 5361 5362 5363 5366 5368 5367 5365 5363 5363 5366 5370 5374 5378 5380 5383 5389 5395 5398 5401 5403 5406 5411 5422 5429 5431 5433 5435 5435 5437 5443 5448 5449 5453 5458 5461 5467 5473
5461 5458 5455 5452 5449 5445 5443 5441 5439 5436 5433 5430 5427 5424 5421 5418 5414 5411 5409 5407 5404 5401 5398 5395 5391 5387 5385 5382 5377 5376 5376 5369 5362 5360 5358 5354 5352 5351 5350 5351 5351 5351 5352 5352 5350 5349 5349 5347 5346 5345 5345 5348 5350 5348 5346 5344 5343 5346 5350 5354 5358 5361 5365 5373 5378 5379 5382 5385 5389 5393 5402 5411 5414 5416 5419 5420 5421 5426 5429 5431 5437 5444 5447 5452 5461
5453 5450 5447 5443 5440 5437 5434 5432 5429 5427 5424 5420 5417 5414 5411 5408 5404 5401 5398 5396 5394 5390 5387 5385 5381 5376 5373 5370 5366 5363 5362 5357 5350 5347 5346 5343 5340 5339 5338 5338 5339 5338 5338 5338 5337 5335 5335 5333 5331 5329 5329 5331 5332 5330 5329 5326 5324 5327 5330 5334 5337 5341 5349 5358 5361 5360 5362 5365 5369 5374 5382 5390 5395 5398 5401 5404 5406 5409 5410 5415 5424 5429 5430 5437 5448
5445 5442 5439 5435 5432 5428 5425 5422 5420 5417 5414 5410 5407 5404 5401 5398 5395 5392 5388 5385 5383 5380 5376 5373 5370 5366 5362 5359 5355 5351 5348 5345 5340 5336 5336 5333 5329 5328 5328 5328 5329 5328 5327 5328 5326 5324 5323 5321 5319 5316 5314 5315 5315 5313 5313 5310 5307 5310 5313 5313 5316 5323 5334 5342 5342 5341 5342 5344 5348 5354 5361 5369 5375 5377 5380 5386 5389 5391 5393 5402 5410 5412 5415 5425 5434
5437 5434 5430 5427 5423 5420 5417 5413 5410 5407 5404 5401 5398 5394 5391 5388 5385 5382 5378 5375 5372 5369 5366 5362 5359 5357 5352 5349 5346 5340 5337 5335 5331 5328 5326 5323 5320 5319 5319 5320 5320 5319 5318 5317 5317 5315 5312 5310 5307 5304 5301 5301 5300 5298 5298 5295 5292 5293 5295 5296 5300 5310 5318 5320 5319 5321 5323 5325 5329 5334 5339 5347 5353 5356 5359 5365 5370 5374 5378 5387 5395 5398 5403 5412 5418
5429 5425 5422 5418 5414 5411 5408 5404 5401 5397 5394 5391 5389 5385 5381 5378 5375 5372 5368 5366 5362 5359 5356 5352 5350 5348 5344 5340 5336 5331 5327 5325 5323 5320 5317 5315 5312 5311 5311 5311 5310 5310 5309 5307 5305 5304 5301 5297 5295 5292 5288 5287 5286 5285 5284 5282 5278 5277 5279 5282 5287 5294 5298 5298 5300 5304 5305 5307 5311 5315 5319 5326 5332 5336 5340 5346 5352 5359 5364 5370 5379 5385 5390 5397 5402
5421 5417 5413 5409 5405 5402 5399 5395 5392 5388 5385 5381 5379 5376 5372 5368 5365 5362 5359 5356 5353 5350 5347 5344 5341 5340 5336 5331 5327 5322 5318 5316 5314 5312 5309 5307 5305 5304 5303 5302 5300 5299 5299 5297 5294 5291 5288 5284 5281 5277 5274 5272 5272 5271 5270 5268 5265 5264 5266 5269 5272 5275 5278 5279 5282 5286 5288 5291 5295 5297 5301 5307 5313 5318 5324 5330 5337 5344 5349 5354 5363 5370 5376 5382 5387
5412 5408 5404 5400 5397 5394 5390 5387 5383 5379 5376 5372 5370 5367 5363 5359 5356 5353 5350 5347 5345 5343 5340 5337 5334 5332 5329 5324 5319 5314 5311 5308 5305 5303 5301 5300 5298 5296 5294 5293 5291 5289 5288 5286 5283 5279 5275 5270 5266 5263 5259 5257 5256 5257 5257 5255 5253 5252 5253 5254 5256 5259 5260 5261 5264 5268 5272 5276 5279 5281 5285 5291 5297 5302 5309 5316 5323 5330 5334 5339 5346 5352 5358 5365 5370
5403 5400 5395 5392 5389 5385 5382 5378 5374 5370 5367 5363 5361 5358 5354 5351 5348 5344 5341 5338 5337 5335 5333 5330 5327 5324 5321 5318 5313 5308 5304 5301 5298 5295 5293 5292 5290 5288 5286 5284 5281 5278 5275 5273 5269 5265 5261 5256 5252 5248 5246 5243 5242 5241 5241 5241 5240 5240 5240 5240 5241 5243 5244 5246 5250 5254 5257 5260 5263 5267 5272 5277 5282 5288 5295 5303 5310 5315 5318 5322 5328 5333 5339 5346 5353
5395 5391 5387 5383 5380 5376 5373 5369 5365 5362 5358 5355 5352 5349 5346 5343 5340 5337 5333 5330 5329 5328 5326 5323 5320 5317 5314 5311 5307 5302 5298 5294 5291 5288 5286 5284 5282 5280 5277 5275 5271 5267 5264 5260 5256 5252 5248 5243 5238 5234 5232 5230 5228 5227 5227 5227 5226 5226 5226 5227 5227 5228 5231 5234 5237 5239 5242 5246 5249 5253 5259 5264 5269 5275 5283 5289 5293 5297 5301 5305 5310 5315 5321 5328 5336
5386 5382 5378 5375 5372 5368 5365 5361 5357 5354 5350 5347 5344 5341 5337 5335 5333 5329 5326 5324 5323 5321 5319 5316 5313 5310 5307 5304 5301 5297 5293 5288 5284 5281 5279 5277 5274 5272 5269 5266 5262 5258 5255 5251 5246 5242 5238 5233 5226 5221 5217 5215 5214 5213 5213 5212 5211 5211 5212 5213 5213 5216 5218 5220 5223 5226 5230 5234 5236 5238 5245 5252 5257 5261 5267 5272 5275 5280 5286 5291 5296 5300 5305 5311 5318
5377 5374 5370 5367 5364 5360 5357 5354 5350 5347 5343 5340 5337 5334 5330 5327 5325 5322 5319 5318 5317 5315 5312 5310 5307 5304 5302 5299 5296 5292 5288 5283 5278 5275 5273 5270 5267 5264 5261 5258 5255 5252 5249 5244 5239 5234 5230 5224 5217 5211 5205 5202 5200 5199 5199 5199 5198 5198 5199 5200 5201 5203 5205 5207 5209 5212 5217 5221 5224 5226 5232 5238 5241 5244 5249 5254 5259 5266 5273 5278 5282 5286 5291 5296 5300
5369 5366 5362 5359 5356 5352 5349 5346 5343 5340 5337 5333 5330 5327 5323 5320 5318 5316 5313 5311 5310 5308 5306 5304 5301 5298 5296 5293 5290 5287 5283 5277 5273 5270 5267 5264 5261 5257 5254 5251 5248 5245 5242 5238 5232 5227 5223 5217 5210 5203 5197 5192 5189 5187 5186 5186 5186 5186 5187 5188 5188 5190 5192 5194 5196 5198 5203 5209 5213 5215 5219 5224 5227 5231 5235 5239 5245 5252 5259 5263 5268 5274 5279 5281 5284
5361 5358 5354 5351 5348 5345 5342 5339 5335 5333 5330 5327 5324 5320 5316 5313 5311 5310 5308 5305 5303 5301 5299 5297 5294 5291 5289 5286 5283 5280 5276 5272 5267 5263 5260 5257 5253 5250 5247 5243 5240 5237 5233 5228 5223 5219 5214 5207 5200 5194 5188 5184 5180 5178 5175 5174 5174 5174 5175 5176 5177 5179 5181 5182 5184 5187 5192 5196 5200 5203 5206 5211 5215 5219 5222 5225 5231 5239 5245 5249 5255 5261 5265 5267 5271
5353 5350 5347 5344 5341 5338 5335 5332 5328 5325 5323 5320 5318 5315 5311 5307 5304 5304 5303 5300 5297 5294 5292 5290 5287 5284 5282 5279 5275 5272 5268 5264 5260 5256 5252 5249 5245 5242 5238 5234 5230 5227 5223 5218 5214 5209 5203 5197 5191 5184 5178 5174 5171 5169 5166 5164 5163 5163 5164 5164 5166 5169 5170 5171 5174 5177 5180 5183 5187 5191 5194 5198 5203 5207 5210 5213 5218 5225 5230 5235 5241 5246 5250 5254 5259
5346 5343 5340 5337 5334 5331 5328 5325 5322 5319 5316 5313 5311 5309 5307 5303 5299 5297 5295 5294 5292 5289 5287 5284 5282 5278 5275 5272 5269 5265 5261 5257 5253 5249 5245 5241 5238 5234 5230 5226 5222 5218 5214 5210 5206 5201 5195 5189 5183 5176 5170 5165 5162 5159 5157 5155 5154 5153 5154 5154 5156 5159 5161 5162 5164 5166 5169 5172 5176 5179 5183 5187 5191 5195 5199 5203 5208 5212 5216 5221 5226 5231 5236 5242 5248
5338 5335 5333 5330 5327 5324 5321 5318 5316 5313 5310 5307 5304 5302 5301 5300 5297 5293 5290 5288 5286 5284 5282 5280 5277 5273 5270 5266 5262 5259 5255 5251 5247 5243 5239 5235 5231 5227 5223 5219 5214 5210 5206 5202 5198 5194 5187 5181 5175 5169 5163 5158 5154 5151 5148 5147 5146 5145 5145 5146 5147 5149 5151 5153 5155 5156 5159 5163 5166 5170 5174 5178 5182 5185 5189 5194 5198 5201 5204 5208 5213 5218 5224 5230 5235
5330 5328 5326 5323 5321 5318 5315 5312 5309 5306 5303 5300 5298 5296 5294 5293 5293 5291 5287 5284 5281 5278 5275 5273 5271 5269 5265 5260 5256 5253 5249 5245 5241 5237 5233 5229 5224 5220 5216 5212 5207 5202 5199 5196 5192 5187 5181 5175 5169 5163 5157 5152 5148 5144 5141 5139 5138 5137 5137 5138 5139 5141 5142 5144 5145 5148 5151 5155 5158 5161 5165 5169 5173 5176 5179 5183 5187 5190 5193 5197 5201 5206 5211 5217 5222
5323 5321 5319 5317 5314 5312 5309 5306 5303 5300 5297 5294 5292 5290 5288 5287 5286 5285 5283 5281 5278 5274 5270 5267 5264 5262 5260 5255 5251 5246 5242 5239 5235 5231 5227 5222 5218 5213 5209 5205 5200 5195 5191 5189 5186 5181 5175 5169 5163 5156 5150 5146 5142 5138 5135 5132 5131 5130 5130 5131 5131 5133 5134 5136 5138 5140 5144 5147 5150 5154 5157 5160 5163 5166 5169 5172 5176 5180 5182 5186 5190 5194 5199 5205 5211
5317 5314 5312 5310 5308 5305 5302 5299 5296 5294 5291 5288 5286 5284 5283 5281 5280 5278 5277 5275 5273 5270 5267 5262 5258 5255 5253 5250 5245 5240 5236 5232 5228 5224 5220 5215 5211 5207 5203 5198 5194 5189 5184 5181 5178 5173 5168 5162 5156 5150 5144 5139 5136 5132 5129 5127 5125 5124 5124 5124 5125 5126 5127 5129 5131 5134 5137 5140 5143 5146 5149 5151 5154 5157 5159 5162 5166 5170 5173 5177 5180 5184 5189 5194 5199
5310 5308 5306 5303 5301 5299 5296 5293 5290 5288 5285 5283 5280 5279 5277 5276 5275 5273 5271 5269 5267 5264 5261 5258 5254 5249 5246 5243 5239 5234 5230 5225 5221 5216 5213 5208 5203 5199 5196 5192 5188 5184 5179 5175 5172 5167 5161 5155 5150 5145 5139 5134 5131 5127 5124 5122 5120 5119 5119 5119 5119 5120 5121 5123 5125 5127 5130 5133 5136 5139 5142 5144 5147 5149 5151 5153 5157 5161 5164 5168 5171 5174 5178 5182 5186
5304 5302 5300 5297 5295 5293 5290 5287 5284 5282 5279 5277 5275 5273 5272 5271 5269 5267 5265 5263 5261 5259 5256 5253 5250 5246 5241 5238 5234 5229 5224 5219 5214 5209 5205 5200 5196 5191 5187 5184 5182 5179 5175 5171 5167 5162 5157 5151 5145 5140 5135 5130 5126 5123 5120 5118 5116 5115 5115 5115 5115 5116 5116 5118 5120 5122 5124 5127 5130 5132 5135 5138 5140 5142 5144 5146 5150 5153 5156 5159 5161 5164 5168 5171 5174
5298 5296 5293 5291 5289 5287 5284 5281 5278 5275 5273 5271 5270 5268 5267 5265 5264 5262 5260 5258 5255 5253 5250 5247 5245 5242 5238 5234 5230 5225 5219 5214 5208 5203 5197 5193 5189 5184 5180 5177 5174 5172 5169 5166 5162 5158 5153 5147 5142 5136 5130 5126 5122 5119 5116 5114 5113 5111 5111 5111 5112 5112 5112 5113 5115 5117 5119 5121 5124 5126 5129 5132 5134 5136 5137 5140 5143 5145 5147 5150 5153 5155 5158 5161 5164
5292 5289 5287 5285 5283 5280 5277 5275 5272 5270 5268 5266 5264 5263 5262 5260 5259 5257 5255 5252 5250 5247 5245 5242 5239 5236 5233 5229 5226 5222 5217 5211 5206 5200 5194 5188 5184 5179 5175 5172 5168 5166 5164 5160 5157 5153 5149 5144 5138 5132 5127 5123 5119 5116 5113 5111 5109 5108 5108 5108 5108 5109 5109 5110 5111 5113 5115 5117 5119 5121 5124 5126 5128 5130 5131 5134 5136 5138 5140 5142 5145 5147 5150 5152 5156
5285 5282 5280 5278 5275 5273 5270 5268 5265 5264 5262 5260 5259 5258 5257 5255 5254 5252 5250 5248 5245 5242 5239 5237 5234 5231 5227 5224 5220 5216 5212 5207 5202 5196 5190 5185 5179 5175 5171 5167 5164 5161 5158 5156 5152 5149 5144 5140 5135 5130 5124 5120 5116 5113 5110 5108 5106 5105 5105 5105 5105 5106 5106 5107 5108 5110 5111 5113 5115 5117 5119 5121 5123 5124 5126 5128 5129 5131 5133 5135 5137 5139 5141 5144 5147
5278 5275 5273 5270 5268 5265 5263 5260 5258 5257 5256 5254 5254 5253 5252 5250 5249 5247 5245 5243 5240 5237 5234 5231 5228 5225 5222 5218 5213 5209 5205 5201 5197 5192 5186 5181 5176 5171 5167 5164 5160 5157 5154 5151 5148 5145 5141 5137 5132 5127 5122 5118 5114 5111 5108 5106 5104 5102 5101 5101 5102 5103 5103 5104 5106 5107 5108 5110 5111 5112 5114 5116 5117 5119 5120 5122 5123 5124 5126 5127 5129 5131 5133 5136 5139
5271 5268 5266 5263 5260 5258 5255 5252 5250 5250 5249 5249 5248 5248 5247 5246 5244 5242 5240 5238 5235 5232 5229 5226 5223 5220 5216 5212 5208 5204 5200 5195 5191 5187 5182 5177 5172 5167 5164 5160 5157 5154 5151 5148 5145 5141 5138 5134 5130 5125 5120 5116 5112 5109 5106 5104 5102 5100 5099 5098 5098 5099 5100 5101 5102 5103 5104 5106 5107 5108 5109 5110 5112 5113 5114 5115 5116 5117 5118 5120 5121 5123 5126 5129 5132
5263 5261 5258 5255 5252 5250 5247 5245 5243 5243 5243 5243 5243 5243 5242 5241 5239 5237 5236 5233 5230 5228 5225 5222 5219 5216 5212 5208 5204 5200 5195 5191 5187 5182 5178 5174 5169 5164 5160 5157 5154 5151 5148 5145 5142 5139 5135 5132 5128 5123 5119 5114 5110 5107 5105 5102 5101 5099 5097 5096 5095 5095 5096 5096 5097 5099 5100 5101 5102 5103 5104 5105 5106 5107 5108 5108 5109 5110 5111 5113 5114 5116 5119 5122 5125
5256 5253 5250 5247 5244 5242 5239 5238 5237 5237 5238 5238 5238 5238 5237 5236 5234 5233 5231 5228 5226 5224 5221 5218 5215 5212 5208 5204 5200 5196 5192 5187 5183 5179 5175 5171 5166 5162 5158 5154 5151 5148 5145 5142 5139 5136 5133 5130 5126 5122 5118 5113 5109 5106 5103 5101 5099 5098 5096 5094 5093 5092 5092 5092 5092 5093 5094 5095 5096 5097 5098 5099 5100 5100 5101 5102 5103 5104 5105 5107 5108 5111 5113 5116 5119
5248 5246 5243 5240 5237 5234 5233 5232 5232 5233 5234 5234 5233 5233 5232 5231 5230 5228 5226 5224 5222 5219 5217 5214 5211 5208 5205 5201 5197 5193 5188 5184 5180 5176 5172 5168 5164 5160 5156 5152 5149 5146 5143 5140 5137 5134 5131 5127 5124 5120 5117 5112 5108 5105 5103 5100 5098 5097 5095 5094 5092 5090 5089 5089 5088 5089 5089 5089 5090 5091 5092 5093 5094 5095 5096 5097 5098 5099 5101 5102 5104 5106 5109 5111 5115
5240 5238 5235 5233 5230 5228 5227 5227 5227 5229 5229 5229 5229 5229 5228 5227 5226 5224 5222 5220 5218 5215 5213 5210 5207 5204 5201 5197 5193 5189 5185 5181 5177 5173 5169 5165 5162 5158 5154 5150 5146 5143 5140 5138 5135 5132 5129 5125 5122 5119 5116 5112 5108 5105 5102 5100 5098 5096 5095 5094 5092 5091 5089 5088 5087 5087 5087 5087 5087 5087 5088 5088 5089 5090 5092 5093 5094 5096 5097 5099 5101 5103 5105 5108 5111
5233 5230 5228 5226 5224 5222 5222 5223 5224 5225 5225 5225 5225 5224 5224 5223 5221 5219 5218 5216 5214 5211 5209 5206 5203 5200 5197 5194 5190 5186 5182 5178 5174 5170 5166 5163 5159 5156 5152 5148 5144 5141 5138 5135 5133 5130 5127 5124 5121 5118 5115 5111 5108 5106 5103 5101 5099 5097 5096 5094 5093 5091 5090 5089 5087 5087 5086 5086 5086 5086 5086 5086 5087 5088 5089 5090 5091 5093 5095 5096 5098 5100 5103 5105 5108
5225 5223 5222 5220 5218 5218 5218 5219 5220 5221 5221 5221 5221 5220 5220 5218 5217 5215 5213 5212 5210 5208 5205 5202 5199 5196 5193 5190 5186 5182 5179 5175 5171 5167 5164 5160 5157 5154 5150 5146 5142 5139 5136 5133 5131 5128 5125 5122 5119 5117 5114 5111 5109 5106 5104 5102 5100 5098 5097 5096 5094 5092 5091 5090 5088 5087 5087 5086 5086 5086 5086 5086 5086 5087 5087 5088 5089 5091 5092 5094 5096 5098 5100 5103 5106
5218 5217 5216 5214 5214 5214 5215 5216 5217 5217 5217 5217 5216 5216 5215 5214 5213 5211 5209 5208 5206 5204 5201 5199 5196 5192 5189 5186 5182 5179 5175 5172 5168 5165 5161 5158 5155 5152 5149 5145 5141 5138 5134 5132 5129 5127 5124 5121 5118 5116 5113 5111 5109 5107 5105 5103 5101 5100 5098 5097 5095 5093 5092 5090 5089 5088 5087 5087 5086 5086 5086 5086 5086 5086 5087 5088 5088 5089 5091 5092 5094 5096 5098 5100 5103
5212 5211 5210 5210 5210 5211 5212 5213 5213 5213 5213 5213 5212 5212 5211 5210 5208 5207 5206 5204 5202 5200 5198 5195 5192 5189 5185 5182 5179 5175 5172 5169 5166 5162 5159 5156 5153 5150 5147 5144 5140 5137 5134 5130 5128 5125 5123 5120 5118 5115 5113 5111 5109 5107 5105 5103 5101 5100 5099 5097 5096 5094 5092 5091 5089 5088 5088 5087 5086 5086 5086 5086 5086 5086 5086 5087 5087 5088 5090 5091 5092 5094 5096 5098 5100
5206 5206 5205 5206 5207 5208 5209 5209 5210 5209 5209 5209 5209 5208 5207 5206 5205 5203 5202 5200 5198 5196 5194 5191 5188 5185 5182 5179 5175 5172 5169 5166 5163 5160 5157 5154 5151 5148 5146 5143 5140 5136 5133 5130 5127 5124 5122 5120 5118 5115 5113 5111 5109 5107 5105 5103 5102 5100 5099 5097 5096 5095 5093 5092 5091 5089 5088 5087 5086 5086 5085 5086 5086 5086 5086 5086 5087 5087 5088 5089 5091 5092 5094 5096 5098